www.pogodaiklimat.ru

Погода и климат >> Архив погоды >> Великобритания >> Sule Skerry


ПОГОДА в Sule Skerry

  • Прогноз погоды в Sule Skerry
  • Монитор погоды в Sule Skerry
  • Климат города

АРХИВ ПОГОДЫ в Sule Skerry

Время (UTC), дата Ветер
(напр.,м/с)
 
Видим.   Явления Облачность Т
(С)
Тd
(С)
f
(%)
Тe
(С)
Тes
(С)
Комфортность P
(гПа)
Po
(гПа)
Тmin
(С)
Tmax
(С)
R
(мм)
R24
(мм)
S
(см)
02 9.07 З 5 н/о н/о +12.0 +8.3 78 +10 +10 1028.7 1029.0
01 9.07 З 4 н/о н/о +11.7 +8.8 82 +9 +9 1028.9 1029.0
03 9.07 З 5 н/о н/о +11.4 +8.6 83 +9 +9 1028.7 1029.0
04 9.07 З 6 н/о н/о +11.7 +8.5 81 +9 +9 1028.7 1029.0
05 9.07 З 8 н/о н/о +10.9 +7.9 82 +7 +7 1028.9 1029.0
06 9.07 З 5 н/о н/о +11.7 +8.5 81 +9 +9 1028.9 1029.0
08 9.07 З 6 н/о н/о +12.2 +8.3 77 +10 +10 1028.9 1029.0
07 9.07 З 6 н/о н/о +11.9 +8.1 78 +9 +9 1028.9 1029.0
09 9.07 З 5 н/о н/о +12.5 +7.8 73 +10 +10 1029.3 1029.0
10 9.07 З 6 н/о н/о +12.7 +8.1 74 +10 +10 1029.1 1029.0
11 9.07 З 5 н/о н/о +13.9 +9.1 73 +12 +12 1028.9 1029.0
12 9.07 З 5 н/о н/о +13.4 +8.7 73 +12 +12 1028.9 1029.0
14 9.07 З 5 н/о н/о +13.5 +9.3 76 +12 +12 1028.9 1029.0
13 9.07 З 4 н/о н/о +13.6 +9.4 76 +12 +12 1028.9 1029.0
15 9.07 З 6 н/о н/о +12.8 +9.2 79 +10 +10 1028.9 1029.0
16 9.07 З 6 н/о н/о +13.0 +10.1 83 +11 +11 1028.7 1029.0
17 9.07 З 6 н/о н/о +13.1 +10.7 85 +11 +11 1028.3 1028.0
18 9.07 З 6 н/о н/о +12.8 +11.0 89 +10 +10 1027.9 1028.0
20 9.07 З 6 н/о н/о +13.0 +11.7 92 +11 +11 1027.9 1028.0
19 9.07 З 6 н/о н/о +13.0 +11.6 91 +11 +11 1027.9 1028.0
21 9.07 З 5 н/о н/о +12.9 +11.8 93 +11 +11 1027.9 1028.0
22 9.07 З 5 н/о н/о +12.7 +11.7 94 +10 +10 1027.9 1028.0
00 10.07 З 4 н/о н/о +12.7 +11.8 94 +11 +11 1027.7 1028.0
01 10.07 З 3 н/о н/о +12.6 +11.8 95 +11 +11 1027.5 1028.0
02 10.07 З 4 н/о н/о +12.4 +11.6 95 +10 +10 1027.3 1027.0
03 10.07 З 4 н/о н/о +12.4 +11.6 95 +10 +10 1027.1 1027.0
04 10.07 З 4 н/о н/о +12.4 +11.6 95 +10 +10 1026.7 1027.0
05 10.07 З 3 н/о н/о +12.4 +11.7 95 +11 +11 1026.7 1027.0
06 10.07 З 4 н/о н/о +12.4 +11.7 95 +10 +10 1026.7 1027.0
07 10.07 СЗ 3 н/о н/о +12.5 +11.8 95 +11 +11 1026.7 1027.0
08 10.07 СЗ 4 н/о н/о +12.3 +11.6 95 +10 +10 1026.9 1027.0
09 10.07 СЗ 3 н/о н/о +12.5 +11.8 95 +11 +11 1026.7 1027.0
10 10.07 С 2 н/о н/о +12.5 +11.8 95 +12 +12 1026.7 1027.0
11 10.07 С 2 н/о н/о +12.5 +11.8 95 +12 +12 1026.7 1027.0
12 10.07 С 1 н/о н/о +12.5 +11.8 95 +12 +12 1026.7 1027.0
13 10.07 З 2 н/о н/о +12.5 +11.8 95 +12 +12 1026.7 1027.0
14 10.07 СЗ 2 н/о н/о +12.4 +11.5 94 +11 +11 1026.7 1027.0
15 10.07 С 1 н/о н/о +12.9 +12.1 95 +13 +13 1026.5 1027.0
16 10.07 СЗ 2 н/о н/о +13.1 +12.1 94 +13 +13 1026.1 1026.0
17 10.07 С 2 н/о н/о +12.8 +11.4 91 +12 +12 1025.9 1026.0
18 10.07 СЗ 2 н/о н/о +12.8 +11.4 91 +12 +12 1025.9 1026.0
19 10.07 С 2 н/о н/о +12.9 +11.7 92 +12 +12 1026.1 1026.0
20 10.07 С 2 н/о н/о +12.7 +11.4 92 +12 +12 1025.9 1026.0
21 10.07 С 3 н/о н/о +12.6 +11.3 92 +11 +11 1026.1 1026.0
22 10.07 С 2 н/о н/о +12.4 +11.1 92 +12 +12 1026.1 1026.0
23 10.07 С 2 н/о н/о +12.5 +11.1 91 +12 +12 1025.7 1026.0
00 11.07 С 2 н/о н/о +12.3 +10.8 91 +12 +12 1025.5 1026.0
01 11.07 С 2 н/о н/о +12.4 +10.9 91 +11 +11 1025.3 1025.0
02 11.07 СЗ 2 н/о н/о +12.0 +10.6 91 +11 +11 1025.1 1025.0
03 11.07 С 2 н/о н/о +12.0 +10.7 92 +11 +11 1024.9 1025.0
04 11.07 СЗ 4 н/о н/о +11.9 +10.8 93 +10 +10 1024.7 1025.0
05 11.07 СЗ 5 н/о н/о +11.7 +10.7 94 +9 +9 1024.7 1025.0
06 11.07 СЗ 4 н/о н/о +11.8 +10.9 94 +9 +9 1024.7 1025.0
07 11.07 СЗ 5 н/о н/о +11.8 +10.9 94 +9 +9 1025.1 1025.0
08 11.07 СЗ 6 н/о н/о +12.0 +11.1 94 +9 +9 1025.1 1025.0
09 11.07 С 5 н/о н/о +11.7 +10.8 94 +9 +9 1025.1 1025.0
10 11.07 С 4 н/о н/о +11.9 +11.0 94 +10 +10 1025.1 1025.0
11 11.07 СЗ 5 н/о н/о +11.7 +10.8 94 +9 +9 1025.1 1025.0
12 11.07 СЗ 5 н/о н/о +11.9 +10.8 93 +9 +9 1025.1 1025.0
13 11.07 СЗ 5 н/о н/о +11.8 +10.6 92 +9 +9 1024.7 1025.0
14 11.07 С 4 н/о н/о +12.0 +10.9 93 +10 +10 1024.9 1025.0
15 11.07 СЗ 4 н/о н/о +12.0 +10.9 93 +10 +10 1024.9 1025.0
16 11.07 СЗ 4 н/о н/о +12.1 +11.0 93 +10 +10 1024.7 1025.0
17 11.07 СЗ 5 н/о н/о +12.2 +11.1 93 +10 +10 1024.7 1025.0
18 11.07 СЗ 5 н/о н/о +12.3 +11.0 92 +10 +10 1024.7 1025.0
19 11.07 СЗ 5 н/о н/о +12.3 +11.0 92 +10 +10 1024.7 1025.0
20 11.07 СЗ 5 н/о н/о +12.6 +10.9 89 +10 +10 1024.7 1025.0
21 11.07 СЗ 5 н/о н/о +12.4 +10.6 89 +10 +10 1024.7 1025.0
22 11.07 СЗ 6 н/о н/о +12.4 +10.5 88 +10 +10 1024.9 1025.0
23 11.07 СЗ 6 н/о н/о +12.3 +10.6 89 +10 +10 1024.9 1025.0
00 12.07 С 5 н/о н/о +12.2 +10.6 90 +10 +10 1024.9 1025.0
01 12.07 С 4 н/о н/о +12.0 +10.6 91 +10 +10 1024.7 1025.0
02 12.07 С 3 н/о н/о +11.9 +10.6 92 +10 +10 1024.3 1024.0
03 12.07 СЗ 3 н/о н/о +12.0 +10.8 92 +10 +10 1024.1 1024.0
04 12.07 С 3 н/о н/о +11.9 +10.6 92 +10 +10 1024.1 1024.0
05 12.07 С 3 н/о н/о +11.8 +10.5 92 +10 +10 1024.1 1024.0
06 12.07 С 2 н/о н/о +11.8 +10.5 92 +11 +11 1024.1 1024.0
07 12.07 С 3 н/о н/о +12.1 +10.8 92 +11 +11 1024.3 1024.0
08 12.07 С 1 н/о н/о +12.4 +11.1 92 +12 +12 1024.5 1025.0
09 12.07 СЗ 1 н/о н/о +12.5 +11.1 91 +12 +12 1024.5 1025.0
10 12.07 З 1 н/о н/о +13.1 +11.7 91 +13 +13 1024.5 1025.0
11 12.07 Ю 2 н/о н/о +12.9 +11.2 89 +12 +12 1024.5 1025.0
12 12.07 Ю 2 н/о н/о +13.5 +11.7 89 +13 +13 1024.7 1025.0
13 12.07 Ю 2 н/о н/о +13.9 +11.7 87 +13 +13 1024.3 1024.0
14 12.07 ЮЗ 2 н/о н/о +14.4 +11.8 84 +14 +14 1024.3 1024.0
15 12.07 Ю 3 н/о н/о +13.6 +10.8 83 +13 +13 1024.1 1024.0
16 12.07 ЮЗ 3 н/о н/о +13.9 +11.3 84 +13 +13 1023.7 1024.0
17 12.07 ЮЗ 3 н/о н/о +14.2 +11.8 85 +13 +13 1023.7 1024.0
18 12.07 ЮЗ 3 н/о н/о +13.8 +11.5 86 +13 +13 1023.5 1024.0
19 12.07 З 3 н/о н/о +13.8 +11.7 87 +13 +13 1023.5 1024.0
20 12.07 З 2 н/о н/о +13.6 +11.3 86 +13 +13 1023.7 1024.0
21 12.07 СЗ 2 н/о н/о +12.9 +11.0 88 +12 +12 1023.7 1024.0
22 12.07 СЗ 1 н/о н/о +12.7 +10.9 89 +13 +13 1023.7 1024.0
23 12.07 Ю 1 н/о н/о +12.7 +11.0 89 +13 +13 1023.3 1023.0
00 13.07 Ю 3 н/о н/о +12.5 +11.0 91 +11 +11 1023.3 1023.0
01 13.07 Ю 2 н/о н/о +12.3 +10.9 91 +11 +11 1022.9 1023.0
02 13.07 Ю 3 н/о н/о +12.1 +10.9 92 +11 +11 1022.7 1023.0
03 13.07 Ю 2 н/о н/о +11.9 +10.8 93 +11 +11 1022.5 1023.0
04 13.07 Ю 2 н/о н/о +11.9 +10.8 93 +11 +11 1022.1 1022.0
05 13.07 Ю 3 н/о н/о +12.4 +11.4 94 +11 +11 1021.7 1022.0
06 13.07 ЮВ 3 н/о н/о +12.3 +11.2 93 +11 +11 1021.7 1022.0
07 13.07 Ю 3 н/о н/о +12.7 +11.4 92 +11 +11 1021.7 1022.0
08 13.07 ЮВ 3 н/о н/о +13.0 +11.7 92 +12 +12 1021.3 1021.0
09 13.07 Ю 4 н/о н/о +13.7 +11.9 89 +12 +12 1021.1 1021.0
10 13.07 Ю 4 н/о н/о +13.8 +11.4 85 +12 +12 1021.1 1021.0
11 13.07 Ю 3 н/о н/о +14.8 +11.7 82 +14 +14 1021.1 1021.0
12 13.07 Ю 3 н/о н/о +14.7 +11.7 82 +14 +14 1020.7 1021.0
13 13.07 Ю 3 н/о н/о +14.7 +11.4 81 +14 +14 1020.5 1021.0
14 13.07 Ю 3 н/о н/о +14.7 +11.9 83 +14 +14 1020.3 1020.0
15 13.07 Ю 3 н/о н/о +14.7 +11.5 81 +14 +14 1019.7 1020.0
16 13.07 ЮЗ 4 н/о н/о +15.1 +11.0 76 +14 +14 1019.4 1019.0
17 13.07 ЮЗ 4 н/о н/о +14.7 +11.1 79 +14 +14 1018.9 1019.0
18 13.07 ЮЗ 5 н/о н/о +14.2 +11.1 82 +13 +13 1018.5 1019.0
19 13.07 ЮЗ 5 н/о н/о +14.0 +11.0 82 +12 +12 1018.1 1018.0
20 13.07 Ю 7 н/о н/о +14.2 +11.8 85 +12 +12 1018.1 1018.0
21 13.07 Ю 6 н/о н/о +14.4 +12.0 85 +12 +12 1017.9 1018.0
22 13.07 Ю 5 н/о н/о +14.0 +11.4 84 +12 +12 1017.5 1018.0
23 13.07 Ю 7 н/о н/о +14.1 +11.5 84 +12 +12 1017.1 1017.0
00 14.07 Ю 6 н/о н/о +13.7 +11.3 85 +12 +12 1016.9 1017.0
01 14.07 Ю 5 н/о н/о +13.4 +11.1 86 +11 +11 1016.1 1016.0
02 14.07 Ю 5 н/о н/о +13.4 +11.3 87 +11 +11 1015.9 1016.0
03 14.07 Ю 5 н/о н/о +13.5 +10.9 84 +11 +11 1015.1 1015.0
04 14.07 Ю 5 н/о н/о +13.4 +11.3 87 +11 +11 1014.5 1015.0
05 14.07 Ю 6 н/о н/о +13.6 +10.9 84 +11 +11 1013.8 1014.0
06 14.07 Ю 7 н/о н/о +14.6 +11.1 80 +13 +13 1013.2 1013.0
07 14.07 Ю 8 н/о н/о +14.3 +11.3 82 +12 +12 1013.0 1013.0
08 14.07 Ю 7 н/о н/о +14.3 +11.3 82 +12 +12 1012.8 1013.0
09 14.07 Ю 11
{14}
н/о н/о +14.3 +11.9 85 +11 +11 1012.6 1013.0
10 14.07 Ю 10 н/о н/о +14.8 +11.5 81 +12 +12 1012.2 1012.0
11 14.07 Ю 11
{15}
н/о н/о +14.6 +11.2 80 +12 +12 1012.2 1012.0
12 14.07 ЮЗ 10
{15}
н/о н/о +14.1 +11.4 84 +11 +11 1011.8 1012.0
13 14.07 ЮЗ 8 н/о н/о +13.8 +11.6 87 +11 +11 1011.8 1012.0
14 14.07 ЮЗ 7 н/о н/о +14.1 +12.1 88 +12 +12 1011.8 1012.0
15 14.07 ЮЗ 7 н/о н/о +13.8 +12.1 89 +11 +11 1011.8 1012.0
16 14.07 ЮЗ 8 н/о н/о +13.6 +12.4 92 +11 +11 1011.6 1012.0
17 14.07 ЮЗ 8 н/о н/о +13.7 +12.7 94 +11 +11 1011.2 1011.0
18 14.07 Ю 8 н/о н/о +13.6 +12.7 94 +11 +11 1011.0 1011.0
19 14.07 ЮЗ 8 н/о н/о +13.9 +13.1 95 +11 +11 1010.8 1011.0
20 14.07 Ю 7 н/о н/о +14.0 +13.1 94 +12 +12 1010.8 1011.0
21 14.07 ЮЗ 8 н/о н/о +14.2 +13.3 94 +12 +12 1010.8 1011.0
22 14.07 Ю 5 н/о н/о +14.0 +13.0 94 +12 +12 1010.6 1011.0
23 14.07 Ю 6 н/о н/о +14.9 +13.8 93 +13 +13 1010.4 1010.0
00 15.07 ЮЗ 5 н/о н/о +14.3 +13.0 92 +13 +13 1010.2 1010.0
01 15.07 Ю 6 н/о н/о +14.8 +13.6 93 +13 +13 1010.0 1010.0
02 15.07 ЮЗ 5 н/о н/о +14.1 +12.8 92 +12 +12 1009.8 1010.0
03 15.07 Ю 5 н/о н/о +14.2 +13.0 92 +13 +13 1009.8 1010.0
04 15.07 Ю 5 н/о н/о +14.4 +13.0 91 +13 +13 1009.2 1009.0
05 15.07 Ю 5 н/о н/о +14.5 +13.2 92 +13 +13 1009.6 1010.0
06 15.07 Ю 4 н/о н/о +13.8 +12.6 92 +12 +12 1009.6 1010.0
07 15.07 Ю 5 н/о н/о +14.3 +13.2 93 +13 +13 1009.8 1010.0
08 15.07 ЮВ 4 н/о н/о +13.6 +12.6 94 +12 +12 1009.8 1010.0
09 15.07 Ю 4 н/о н/о +13.8 +12.9 94 +12 +12 1010.0 1010.0
10 15.07 Ю 4 н/о н/о +13.8 +13.0 95 +12 +12 1009.8 1010.0
11 15.07 Ю 4 н/о н/о +14.4 +13.6 95 +13 +13 1010.2 1010.0
12 15.07 Ю 3 н/о н/о +14.7 +13.9 95 +14 +14 1010.2 1010.0
13 15.07 Ю 2 н/о н/о +15.0 +14.2 95 +15 +15 1010.2 1010.0
14 15.07 Ю 2 н/о н/о +14.4 +13.5 94 +14 +14 1010.6 1011.0
15 15.07 ЮЗ 3 н/о н/о +14.8 +14.0 95 +14 +14 1010.2 1010.0
16 15.07 ЮЗ 3 н/о н/о +14.4 +13.6 95 +13 +13 1010.2 1010.0
17 15.07 Ю 3 н/о н/о +14.4 +13.6 95 +13 +13 1009.8 1010.0
18 15.07 Ю 2 н/о н/о +14.7 +14.0 96 +14 +14 1010.0 1010.0
19 15.07 Ю 2 н/о н/о +13.9 +13.1 95 +14 +14 1009.6 1010.0
20 15.07 ЮВ 2 н/о н/о +14.0 +13.2 95 +13 +13 1009.2 1009.0
21 15.07 В 3 н/о н/о +13.4 +12.5 94 +12 +12 1009.2 1009.0
22 15.07 В 3 н/о н/о +13.1 +12.3 95 +12 +12 1009.0 1009.0
23 15.07 В 4 н/о н/о +12.8 +12.0 95 +11 +11 1008.6 1009.0
00 16.07 В 3 н/о н/о +13.9 +13.2 96 +13 +13 1008.2 1008.0
01 16.07 ЮВ 3 н/о н/о +13.5 +12.8 96 +12 +12 1008.2 1008.0

 

Местоположение метеостанции Sule Skerry (Великобритания): широта 59.08 долгота -4.40 высота над уровнем моря 12 м.

В архиве по умолчанию представлена погода в Sule Skerry за последнюю неделю. Архивные данные за месяц целиком и за предыдущие месяцы, начиная с января 2011 года, Вы можете получить, выбрав интересующий диапазон дат из раскрывающегося списка и нажав кнопку "Ввод!".


*Определитесь, кто Вы:
робот инопланетянин человек

Внимание! Время в таблицах - всемирное. Для получения местного времени необходимо прибавить поправку, которая в Sule Skerry равна 0 ч.

Смотрите также архив погоды в соседних городах и на ближайших метеорологических станциях:

Погода в Kirkwall (Великобритания) (87 км)
Погода в Altnaharra (Великобритания) (89 км)
Погода в Wick (Великобритания) (103 км)
Погода в Tain Range (Великобритания) (142 км)
Погода в Stornoway (Великобритания) (147 км)
Погода в Aultbea (Великобритания) (152 км)
Погода в Loch Glascarnoch (Великобритания) (154 км)
Погода в Lossiemouth (Великобритания) (164 км)
Погода в Fair Isle (Великобритания) (165 км)
Погода в Kinloss (Великобритания) (166 км)

Пояснения к столбцам:

Ветер - указаны скорость ветра в м/с - средняя за 10 мин, порывы в срок и между сроками (в фигурных скобках) и направление, откуда дует ветер: С - северный, СВ - северо-восточный, В - восточный, ЮВ - юго-восточный, Ю - южный, ЮЗ - юго-западный, З - западный, СЗ - северо-западный.
Видимость - горизонтальная дальность видимости в метрах или километрах. При видимости от 1 до 10 км при отсутствии осадков обычно наблюдается дымка, при ухудшении видимости до 1 км и менее - туман. В сухую погоду видимость может ухудшаться дымом, пылью или мглою.
Явления - указаны атмосферные явления, наблюдавшиеся в срок или в последний час перед сроком; фигурными скобками обозначены явления, наблюдавшиеся между сроками (за 1-3 часа до срока); квадратными скобками обозначены град или гололедные отложения с указанием их диаметра в мм.
Облачность - указаны через наклонную черту общая и нижняя облачность в баллах и высота нижней границы облаков в метрах; квадратными скобками обозначены формы облаков: Ci - перистые, Cs - перисто-слоистые, Cc - перисто-кучевые, Ac - высококучевые, As - высокослоистые, Sc - слоисто-кучевые, Ns - слоисто-дождевые, Cu - кучевые, Cb - кучево-дождевые. Подробнее классификацию облаков см. в Атласе облаков (PDF).
T - Температура воздуха - температура, измеренная на высоте 2 м над землей.
Td - Температура точки росы - температура, при понижении до которой содержащийся в воздухе водяной пар достигнет насыщения.
f - Относительная влажность воздуха - влажноcть воздуха, измеренная на высоте 2 м над землей.
Te - Эффективная температура - температура, которую ощущает одетый по сезону человек в тени. Характеристика душности погоды. При расчете учитывается влияние влажности воздуха и скорости ветра на теплоощущения человека.
Tes - Эффективная температура на солнце - температура, которую ощущает человек, с поправкой на солнечный нагрев. Характеристика знойности погоды. Зависит от высоты солнца над горизонтом, облачности и скорости ветра. Ночью, в пасмурную погоду, а также при ветре 12 м/с и более поправка равна нулю.
P - Атмосферное давление - приведенное к уровню моря атмосферное давление.
Po - Атмосферное давление - измеренное на уровне метеостанции атмосферное давление.
Tmin - Минимальная температура - минимум температуры воздуха на высоте 2 м над землей.
Tmax - Максимальная температура - максимум температуры воздуха на высоте 2 м над землей.
R - Количество осадков - Количество выпавших осадков за период времени, мм. При наведении курсора мыши на число - период времени, за который выпало указанное количество осадков.
R24 - Количество осадков - Количество выпавших осадков за 24 часа, мм.
S - Снежный покров - Высота снежного покрова, см. При наведении курсора мыши на число - состояние снежного покрова и степень покрытия местности в баллах.